N1YZ Weather Reports


time (UTC)temp
C
wind
direction
speed
KPH
gust
KPH
rain 1hr
cm
rain 24hr
cm
rain mn
cm
humidity
%
barometer
mb
20240723051714 22 154 0.0 0.0 0.00 0.00 0.00 97 1037.8
20240723051148 22 154 0.0 0.0 0.00 0.00 0.00 97 1038.0
20240723050648 22 154 0.0 0.0 0.00 0.00 0.00 97 1038.1
20240723050147 22 154 0.0 0.0 0.00 0.00 0.00 97 1038.1
20240723045640 22 154 0.0 0.0 0.00 0.00 0.00 97 1037.9
20240723045139 22 154 0.0 0.0 0.00 0.00 0.00 97 1037.9
20240723044638 22 154 0.0 0.0 0.00 0.00 0.00 96 1037.8
20240723044138 22 154 0.0 0.0 0.00 0.00 0.00 96 1037.9
20240723043637 22 155 0.0 0.0 0.00 0.00 0.00 96 1038.1
20240723043136 22 155 0.0 0.0 0.00 0.00 0.00 96 1037.9
20240723042629 22 155 0.0 0.0 0.00 0.00 0.00 96 1038.0
20240723042128 22 155 0.0 0.0 0.00 0.00 0.00 96 1037.9
20240723041627 22 155 0.0 0.0 0.00 0.00 0.00 96 1037.8
20240723041127 22 155 0.0 0.0 0.00 0.00 0.00 96 1037.8
20240723040625 22 155 0.0 0.0 0.00 0.00 0.00 95 1037.7
20240723040124 22 155 0.0 0.0 0.00 0.00 0.00 95 1037.6
20240723035622 22 155 0.0 0.0 0.00 0.00 0.00 95 1037.6
20240723035122 22 155 0.0 0.0 0.00 0.00 0.00 95 1037.8
20240723034621 22 155 0.0 0.0 0.00 0.00 0.00 95 1037.5
20240723034119 22 155 0.0 0.0 0.00 0.00 0.00 95 1037.7
20240723033617 22 155 0.0 0.0 0.00 0.00 0.00 95 1037.8
20240723033116 22 155 0.0 0.0 0.00 0.00 0.00 95 1037.6
20240723032614 22 155 0.0 0.0 0.00 0.00 0.00 95 1037.6
20240723032112 22 155 0.0 0.0 0.00 0.00 0.00 95 1037.4
20240723031611 22 155 0.0 0.0 0.00 0.00 0.00 95 1037.6
20240723031110 22 155 0.0 0.0 0.00 0.00 0.00 95 1037.6
20240723030609 22 155 0.0 0.0 0.00 0.00 0.00 95 1037.6
20240723030108 23 155 0.0 0.0 0.00 0.00 0.00 95 1037.5
20240723025607 23 155 0.0 0.0 0.00 0.00 0.00 94 1037.5
20240723025106 23 155 0.0 0.0 0.00 0.00 0.00 94 1037.6
20240723024605 23 155 0.0 0.0 0.00 0.00 0.00 94 1037.6
20240723024103 23 155 0.0 0.0 0.00 0.00 0.00 94 1037.5
20240723023601 23 155 0.0 0.0 0.00 0.00 0.00 93 1037.5
20240723023100 23 155 0.0 0.0 0.00 0.00 0.00 93 1037.4
20240723022558 23 155 0.0 0.0 0.00 0.00 0.00 92 1037.3
20240723022057 23 155 0.0 0.0 0.00 0.00 0.00 92 1037.1
20240723021555 23 155 0.0 0.0 0.00 0.00 0.00 92 1037.2
20240723021053 23 155 0.0 0.0 0.00 0.00 0.00 92 1037.1
20240723020552 23 155 0.0 0.0 0.00 0.00 0.00 92 1037.0
20240723020051 23 155 0.0 0.0 0.00 0.00 0.00 92 1036.9
20240723015547 23 155 0.0 0.0 0.00 0.00 0.00 91 1036.7
20240723015047 23 155 0.0 0.0 0.00 0.00 0.00 91 1036.8
20240723014546 23 155 0.0 0.0 0.00 0.00 0.00 92 1036.6
20240723014046 23 155 0.0 0.0 0.00 0.00 0.00 91 1036.7
20240723013545 23 155 0.0 0.0 0.00 0.00 0.00 91 1036.7
20240723013043 23 155 0.0 0.0 0.00 0.00 0.00 90 1036.4
20240723012540 24 155 0.0 0.0 0.00 0.00 0.00 90 1036.4
20240723012038 24 155 0.0 0.0 0.00 0.00 0.00 89 1036.3
20240723011535 24 155 0.0 0.0 0.00 0.00 0.00 89 1036.4
20240723011034 24 155 0.0 0.0 0.00 0.00 0.00 89 1036.3
20240723010533 24 155 0.0 0.0 0.00 0.00 0.00 89 1036.3
20240723010033 25 155 0.0 0.0 0.00 0.00 0.00 88 1036.4
20240723005528 24 156 0.0 0.0 0.00 0.00 0.00 88 1036.2
20240723005027 24 155 0.0 0.0 0.00 0.00 0.00 90 1036.2
20240723004526 25 155 0.0 0.0 0.00 0.00 0.00 90 1036.1
20240723004025 25 155 0.0 0.0 0.00 0.00 0.00 90 1036.0
20240723003523 25 155 0.0 0.0 0.00 0.00 0.00 89 1035.9
20240723003022 25 155 0.0 0.0 0.00 0.00 0.00 87 1036.1
20240723002518 25 158 0.0 0.0 0.00 0.00 0.00 90 1035.9
20240723002017 25 158 0.0 0.0 0.00 0.00 0.00 90 1035.9
20240723001511 25 158 0.0 0.0 0.00 0.00 0.00 89 1035.9
20240723001010 25 158 0.0 0.0 0.00 0.00 0.00 89 1035.5
20240723000509 25 159 0.0 0.0 0.00 0.00 0.00 88 1035.7
20240723000008 25 159 0.0 0.0 0.00 0.00 0.00 88 1035.9
20240722235506 25 159 0.0 0.0 0.00 0.00 0.00 87 1035.9
20240722235005 25 169 0.0 0.0 0.00 0.00 0.00 88 1035.8
20240722234503 25 169 3.2 3.2 0.00 0.00 0.00 87 1035.7
20240722234003 25 171 0.0 0.0 0.00 0.00 0.00 88 1035.8
20240722233500 25 171 0.0 0.0 0.00 0.00 0.00 87 1035.8
20240722233000 25 171 0.0 0.0 0.00 0.00 0.00 88 1035.5
20240722232458 25 171 0.0 0.0 0.00 0.00 0.00 87 1035.6
20240722231956 26 180 1.6 1.6 0.00 0.00 0.00 86 1035.4
20240722231455 26 161 3.2 4.8 0.00 0.00 0.00 85 1035.4
20240722230954 26 179 1.6 1.6 0.00 0.00 0.00 87 1035.7
20240722230450 26 168 3.2 3.2 0.00 0.00 0.00 88 1035.4
20240722225949 26 183 4.8 4.8 0.00 0.00 0.00 87 1035.5
20240722225444 26 156 1.6 3.2 0.00 0.00 0.00 85 1035.5
20240722224943 26 159 0.0 1.6 0.00 0.00 0.00 85 1035.4
20240722224443 26 159 0.0 0.0 0.00 0.00 0.00 84 1035.2
20240722223942 27 160 1.6 1.6 0.00 0.00 0.00 84 1035.1
20240722223440 27 160 0.0 1.6 0.00 0.00 0.00 83 1035.3
20240722222939 27 158 3.2 3.2 0.00 0.00 0.00 83 1035.3
20240722222438 27 172 3.2 3.2 0.00 0.00 0.00 83 1035.3
20240722221937 27 156 3.2 3.2 0.00 0.00 0.00 81 1035.3
20240722221435 28 156 0.0 0.0 0.00 0.00 0.00 79 1035.3
20240722220933 28 156 0.0 0.0 0.00 0.00 0.00 79 1035.4
20240722220431 28 156 0.0 0.0 0.00 0.00 0.00 78 1035.4
20240722215930 28 156 0.0 0.0 0.00 0.00 0.00 78 1035.6
20240722215429 28 156 0.0 0.0 0.00 0.00 0.00 77 1035.6
20240722214928 28 156 0.0 0.0 0.00 0.00 0.00 75 1035.3
20240722214427 28 156 0.0 0.0 0.00 0.00 0.00 74 1035.3
20240722213925 28 156 0.0 0.0 0.00 0.00 0.00 78 1035.3
20240722213424 28 156 0.0 0.0 0.00 0.00 0.00 77 1035.3
20240722212923 28 156 0.0 0.0 0.00 0.00 0.00 77 1035.3
20240722212421 28 156 0.0 0.0 0.00 0.00 0.00 76 1035.6
20240722211919 28 158 0.0 0.0 0.00 0.00 0.00 76 1035.1
20240722211418 28 162 1.6 1.6 0.00 0.00 0.00 75 1035.3
20240722210917 28 162 0.0 0.0 0.00 0.00 0.00 72 1035.3
20240722210417 28 165 0.0 0.0 0.00 0.00 0.00 79 1035.2
20240722205915 28 165 0.0 0.0 0.00 0.00 0.00 76 1035.6
20240722205413 28 166 0.0 0.0 0.00 0.00 0.00 75 1035.4
20240722204908 28 165 0.0 0.0 0.00 0.00 0.00 74 1035.4
20240722204407 28 166 0.0 0.0 0.00 0.00 0.00 80 1035.2
20240722203904 28 165 0.0 0.0 0.00 0.00 0.00 77 1035.2
20240722203403 28 135 3.2 3.2 0.00 0.00 0.00 76 1035.4
20240722202859 28 150 0.0 0.0 0.00 0.00 0.00 77 1035.4
20240722202357 28 150 0.0 0.0 0.00 0.00 0.00 77 1035.5
20240722201854 28 151 0.0 0.0 0.00 0.00 0.00 76 1035.5
20240722201353 28 172 0.0 0.0 0.00 0.00 0.00 77 1035.5
20240722200851 28 194 1.6 1.6 0.00 0.00 0.00 79 1035.8
20240722200351 28 176 0.0 0.0 0.00 0.00 0.00 79 1035.8
20240722195850 28 220 0.0 0.0 0.00 0.00 0.00 76 1035.8
20240722195348 28 221 0.0 0.0 0.00 0.00 0.00 78 1035.9
20240722194845 29 225 0.0 0.0 0.00 0.00 0.00 75 1036.0
20240722194343 29 194 0.0 1.6 0.00 0.00 0.00 72 1036.1
20240722193842 29 180 0.0 0.0 0.00 0.00 0.00 75 1036.3
20240722193341 28 257 1.6 1.6 0.00 0.00 0.00 75 1036.3
20240722192839 28 168 0.0 0.0 0.00 0.00 0.00 74 1036.3
20240722192337 28 168 0.0 0.0 0.00 0.00 0.00 75 1036.7
20240722191837 28 168 0.0 0.0 0.00 0.00 0.00 75 1036.7
20240722191336 28 233 0.0 0.0 0.00 0.00 0.00 78 1036.8
20240722190835 28 273 1.6 1.6 0.00 0.00 0.00 76 1036.7
20240722190333 27 243 0.0 1.6 0.00 0.00 0.00 81 1036.8
20240722185832 28 243 0.0 0.0 0.00 0.00 0.00 79 1036.8
20240722185331 27 243 1.6 1.6 0.00 0.00 0.00 84 1036.9
20240722184829 26 243 0.0 0.0 0.00 0.00 0.00 83 1037.0
20240722184328 27 243 1.6 1.6 0.00 0.00 0.00 83 1037.0
20240722183827 27 243 1.6 1.6 0.00 0.00 0.00 81 1037.2
20240722183326 27 246 0.0 0.0 0.00 0.00 0.00 81 1037.1
20240722182823 27 247 0.0 0.0 0.00 0.00 0.00 79 1037.3
20240722182323 27 192 0.0 0.0 0.00 0.00 0.00 84 1037.2
20240722181821 27 191 0.0 0.0 0.00 0.00 0.00 85 1037.3
20240722181319 27 191 0.0 0.0 0.00 0.00 0.00 85 1037.6
20240722180813 26 156 0.0 0.0 0.00 0.00 0.00 86 1037.6
20240722180311 26 157 0.0 0.0 0.00 0.00 0.00 87 1037.7
20240722175810 26 157 0.0 0.0 0.00 0.00 0.00 88 1037.7
20240722175310 26 160 0.0 0.0 0.00 0.00 0.00 88 1037.7
20240722174808 25 162 0.0 1.6 0.00 0.00 0.00 90 1037.5
20240722174307 25 166 0.0 0.0 0.00 0.00 0.00 88 1037.8
20240722173806 25 174 0.0 0.0 0.00 0.00 0.00 89 1037.7
20240722173304 25 168 0.0 1.6 0.00 0.00 0.00 88 1037.9
20240722172802 25 195 0.0 0.0 0.00 0.00 0.00 89 1037.7
20240722172301 25 197 0.0 0.0 0.00 0.00 0.00 91 1038.1
20240722171759 25 195 0.0 0.0 0.00 0.00 0.00 92 1037.9
20240722171257 24 196 0.0 0.0 0.00 0.00 0.00 91 1038.0
20240722170755 24 196 0.0 0.0 0.00 0.00 0.00 93 1037.9
20240722170254 25 196 0.0 0.0 0.00 0.00 0.00 91 1038.1
20240722165753 25 196 0.0 0.0 0.00 0.00 0.00 90 1038.2
20240722165251 25 197 0.0 0.0 0.00 0.00 0.00 90 1037.9
20240722164751 25 199 0.0 0.0 0.00 0.00 0.00 90 1037.8
20240722164249 25 46 3.2 4.8 0.00 0.00 0.00 89 1038.1
20240722163744 25 162 0.0 0.0 0.00 0.00 0.00 89 1038.1
20240722163243 25 161 0.0 0.0 0.00 0.00 0.00 88 1038.0
20240722162742 25 131 0.0 0.0 0.00 0.00 0.00 89 1038.1
20240722162240 24 169 0.0 0.0 0.00 0.00 0.00 90 1038.2
20240722161739 24 170 0.0 0.0 0.00 0.00 0.00 90 1038.1
20240722161237 24 171 0.0 0.0 0.00 0.00 0.00 90 1038.3
20240722160735 24 173 0.0 0.0 0.00 0.00 0.00 91 1038.1
20240722160235 24 185 0.0 0.0 0.00 0.00 0.00 92 1038.1
20240722155734 24 150 0.0 0.0 0.00 0.00 0.00 93 1038.0
20240722155233 24 150 0.0 0.0 0.00 0.00 0.00 92 1038.4
20240722154733 23 150 0.0 0.0 0.00 0.00 0.00 91 1038.3
20240722154231 24 150 0.0 0.0 0.00 0.00 0.00 93 1038.1
20240722153730 24 150 0.0 0.0 0.00 0.00 0.00 92 1038.2
20240722153228 24 154 0.0 0.0 0.00 0.00 0.00 92 1038.2
20240722152727 24 154 0.0 0.0 0.00 0.00 0.00 93 1038.0
20240722152226 24 154 0.0 0.0 0.00 0.00 0.00 92 1038.3
20240722151724 23 154 0.0 0.0 0.00 0.00 0.00 91 1038.2
20240722151222 23 154 0.0 0.0 0.00 0.00 0.00 93 1038.1
20240722150718 23 154 0.0 0.0 0.00 0.00 0.00 93 1038.3
20240722150217 23 154 0.0 0.0 0.00 0.00 0.00 93 1038.1
20240722145716 23 154 0.0 0.0 0.00 0.00 0.00 93 1037.8
20240722145214 24 154 0.0 0.0 0.00 0.00 0.00 92 1037.9
20240722144713 23 154 0.0 0.0 0.00 0.00 0.00 92 1037.9
20240722144213 23 154 0.0 0.0 0.00 0.00 0.00 92 1038.0
20240722143711 23 154 0.0 0.0 0.00 0.00 0.00 92 1037.8
20240722143211 23 154 1.6 3.2 0.00 0.00 0.00 93 1037.7
20240722142710 23 154 0.0 0.0 0.00 0.00 0.00 94 1037.7
20240722142209 23 160 0.0 0.0 0.00 0.00 0.00 95 1037.7
20240722141709 22 158 0.0 0.0 0.00 0.00 0.00 97 1037.5
20240722141207 22 158 0.0 0.0 0.00 0.00 0.00 98 1037.3
20240722140704 22 158 0.0 0.0 0.00 0.00 0.00 97 1037.6
20240722140202 22 158 0.0 0.0 0.00 0.00 0.00 97 1037.6
20240722135701 22 158 0.0 0.0 0.00 0.00 0.00 97 1037.6
20240722135158 22 158 0.0 0.0 0.00 0.00 0.00 97 1037.8
20240722134658 22 158 0.0 0.0 0.00 0.00 0.00 97 1037.7
20240722134156 22 158 0.0 0.0 0.00 0.00 0.00 98 1037.6
20240722133654 22 158 0.0 0.0 0.00 0.00 0.00 98 1037.6
20240722133153 22 158 0.0 0.0 0.00 0.00 0.00 98 1037.5
20240722132651 22 158 0.0 0.0 0.00 0.00 0.00 99 1037.6
20240722132151 22 158 0.0 0.0 0.00 0.00 0.00 99 1037.7
20240722131650 22 158 0.0 0.0 0.00 0.00 0.00 98 1037.6
20240722131148 22 158 0.0 0.0 0.00 0.00 0.00 98 1037.5
20240722130647 22 158 0.0 0.0 0.00 0.00 0.00 99 1037.6
20240722130146 22 158 0.0 0.0 0.00 0.00 0.00 99 1037.6
20240722125645 22 158 1.6 1.6 0.00 0.00 0.00 99 1037.3
20240722125143 22 158 0.0 0.0 0.00 0.00 0.00 98 1037.4
20240722124641 22 158 0.0 0.0 0.00 0.00 0.00 98 1037.4
20240722124142 22 158 0.0 0.0 0.00 0.00 0.00 98 1037.6
20240722123641 22 158 0.0 0.0 0.00 0.00 0.00 98 1037.3
20240722123138 21 158 0.0 0.0 0.00 0.00 0.00 98 1037.3
20240722122635 21 158 0.0 0.0 0.00 0.00 0.00 98 1037.1
20240722122131 21 158 0.0 0.0 0.00 0.00 0.00 99 1037.2
20240722121629 21 158 0.0 0.0 0.00 0.00 0.00 99 1037.1
20240722121128 21 158 0.0 0.0 0.00 0.00 0.00 99 1037.0
20240722120625 21 158 0.0 0.0 0.00 0.00 0.00 99 1036.9
20240722120124 21 158 0.0 0.0 0.00 0.00 0.00 99 1036.8
20240722115623 21 158 0.0 0.0 0.00 0.00 0.00 99 1036.9
20240722115122 21 158 0.0 0.0 0.00 0.00 0.00 99 1036.8
20240722114620 21 158 0.0 0.0 0.00 0.00 0.00 99 1036.7
20240722114119 21 158 0.0 0.0 0.00 0.00 0.00 99 1036.6
20240722113617 21 158 0.0 0.0 0.00 0.00 0.00 99 1036.8
20240722113116 21 157 0.0 0.0 0.00 0.00 0.00 99 1036.8
20240722112614 21 157 0.0 0.0 0.00 0.00 0.00 99 1036.7
20240722112111 21 157 0.0 0.0 0.00 0.00 0.00 99 1036.7
20240722111611 21 157 0.0 0.0 0.00 0.00 0.00 99 1036.8
20240722111108 21 157 0.0 0.0 0.00 0.00 0.00 99 1036.7
20240722110607 21 157 0.0 0.0 0.00 0.00 0.00 99 1036.8
20240722110105 21 157 0.0 0.0 0.00 0.00 0.00 99 1036.8
20240722105603 21 157 0.0 0.0 0.00 0.00 0.00 99 1036.8
20240722105101 21 157 0.0 0.0 0.00 0.00 0.00 99 1036.6
20240722104600 21 157 0.0 0.0 0.00 0.00 0.00 99 1036.6
20240722104100 21 157 0.0 0.0 0.00 0.00 0.00 99 1036.5
20240722103559 21 157 0.0 0.0 0.00 0.00 0.00 99 1036.8
20240722103058 21 157 0.0 0.0 0.00 0.00 0.00 99 1036.6
20240722102557 21 157 0.0 0.0 0.00 0.00 0.00 99 1036.7
20240722102056 20 157 0.0 0.0 0.00 0.00 0.00 99 1036.5
20240722101555 21 157 0.0 0.0 0.00 0.00 0.00 99 1036.4
20240722101053 20 157 0.0 0.0 0.00 0.00 0.00 99 1036.5
20240722100552 20 157 0.0 0.0 0.00 0.00 0.00 99 1036.3
20240722100050 21 157 0.0 0.0 0.00 0.00 0.00 99 1036.2
20240722095548 20 157 0.0 0.0 0.00 0.00 0.00 99 1036.2
20240722095048 20 157 0.0 0.0 0.00 0.00 0.00 99 1036.1
20240722094546 20 157 0.0 0.0 0.00 0.00 0.00 99 1036.4
20240722094043 20 157 0.0 0.0 0.00 0.00 0.00 99 1036.2
20240722093541 20 157 0.0 0.0 0.00 0.00 0.00 99 1036.0
20240722093041 20 157 0.0 0.0 0.00 0.00 0.00 99 1036.0
20240722092539 20 158 0.0 0.0 0.00 0.00 0.00 99 1035.9
20240722092038 20 158 0.0 0.0 0.00 0.00 0.00 99 1036.0
20240722091535 20 158 0.0 0.0 0.00 0.00 0.00 99 1036.0
20240722091035 20 158 0.0 0.0 0.00 0.00 0.00 99 1036.0
20240722090533 20 158 0.0 0.0 0.00 0.00 0.00 99 1035.9
20240722090031 20 158 0.0 0.0 0.00 0.00 0.00 99 1036.1
20240722085527 20 158 0.0 0.0 0.00 0.00 0.00 99 1036.1
20240722085026 20 158 0.0 0.0 0.00 0.00 0.00 99 1036.0
20240722084523 20 158 0.0 0.0 0.00 0.00 0.00 99 1036.5
20240722084021 20 158 0.0 0.0 0.00 0.00 0.00 99 1036.1
20240722083520 20 158 0.0 0.0 0.00 0.00 0.00 99 1036.2
20240722083020 20 158 0.0 0.0 0.00 0.00 0.00 99 1036.0
20240722082518 20 158 0.0 0.0 0.00 0.00 0.00 99 1036.3
20240722082017 20 158 0.0 0.0 0.00 0.00 0.00 99 1036.1
20240722081515 20 158 0.0 0.0 0.00 0.00 0.00 99 1036.2
20240722081014 20 158 0.0 0.0 0.00 0.00 0.00 99 1036.0
20240722080513 20 158 0.0 0.0 0.00 0.00 0.00 99 1035.9
20240722080013 21 158 0.0 0.0 0.00 0.00 0.00 99 1036.2
20240722075510 21 158 0.0 0.0 0.00 0.00 0.00 99 1036.2
20240722075009 21 158 0.0 0.0 0.00 0.00 0.00 99 1036.2
20240722074508 20 158 0.0 0.0 0.00 0.00 0.00 99 1036.3
20240722074006 21 158 0.0 0.0 0.00 0.00 0.00 99 1036.4
20240722073505 21 158 0.0 0.0 0.00 0.00 0.00 99 1036.6
20240722073003 20 158 0.0 0.0 0.00 0.00 0.00 99 1036.4
20240722072501 21 158 0.0 0.0 0.00 0.00 0.00 99 1036.6
20240722071959 21 158 0.0 0.0 0.00 0.00 0.00 99 1036.7
20240722071457 21 158 0.0 0.0 0.00 0.00 0.00 99 1036.6
20240722070956 21 158 0.0 0.0 0.00 0.00 0.00 99 1036.5
20240722070453 21 158 0.0 0.0 0.00 0.00 0.00 99 1036.5
20240722065953 21 158 0.0 0.0 0.00 0.00 0.00 99 1036.6
20240722065453 21 158 0.0 0.0 0.00 0.00 0.00 99 1036.7
20240722064951 21 158 0.0 0.0 0.00 0.00 0.00 99 1036.7
20240722064449 21 158 0.0 0.0 0.00 0.00 0.00 99 1037.0
20240722063949 21 158 0.0 0.0 0.00 0.00 0.00 99 1037.1
20240722063446 21 158 0.0 0.0 0.00 0.00 0.00 99 1036.9
20240722062944 21 158 0.0 0.0 0.00 0.00 0.00 99 1037.0
20240722062443 21 158 0.0 0.0 0.00 0.00 0.00 99 1037.2
20240722061942 21 158 0.0 0.0 0.00 0.00 0.00 98 1037.1
20240722061441 21 158 0.0 0.0 0.00 0.00 0.00 99 1037.5
20240722060939 21 158 0.0 0.0 0.00 0.00 0.00 99 1037.4
20240722060437 21 158 0.0 0.0 0.00 0.00 0.00 99 1037.5
20240722055936 21 158 0.0 0.0 0.00 0.00 0.00 99 1037.6
20240722055434 21 158 0.0 0.0 0.00 0.00 0.00 99 1037.4
20240722054933 21 158 0.0 0.0 0.00 0.00 0.00 99 1037.3
20240722054432 21 158 0.0 0.0 0.00 0.00 0.00 99 1037.5
20240722053930 21 158 0.0 0.0 0.00 0.00 0.00 99 1037.4
20240722053428 21 159 0.0 0.0 0.00 0.00 0.00 99 1037.4
20240722052928 21 159 0.0 0.0 0.00 0.00 0.00 99 1037.4
20240722052426 21 159 0.0 0.0 0.00 0.00 0.00 99 1037.4